TIROS 8 DEB, 19396

Orbit data source: Space-Track

TIROS 8 DEB, 19396 is space debris in LEO originally from a launch on Sat, 21 Dec 1963 UTC launched from the Air Force Western Test Range (AFWTR). Debris objects in space refer to the collection of defunct objects orbiting the Earth. Examples of debris include non-operational satellites, rocket bodies, and fragments generated from explosions, collisions, or faulty payload assembly.

Loading next visibility...
Identifier
19396, 1963-054E
Orbit
LEO
Country
Flag of USUS
Related business
Manufacturer
Unknown
Mission
Spacecraft
Bus & Motor
Unknown
Mass
Unknown
Launch date (UTC)
1963-12-21 (62 years ago)
Launch vehicle
Unknown
Launch site
Air Force Western Test Range (AFWTR)
Object type
Payload
Rocket body
Debris
Shape & HBR
Unknown shape, 0.1 m
Radar Cross Section
Small (<0.1 m²)

Expand to show TLE details & history
Last TLE update: 9 hours ago

TLE from 9 hours ago
0 TIROS 8 DEB
1 19396U 63054E   25298.78601830  .00010228  00000-0  61414-3 0  9997
2 19396  58.4654 117.7687 0023399  91.3426 269.0312 15.11266780999063
Epoch: 2025-10-25T18:51Z
TLE epoch observation values (Epoch: 2025-10-25T18:51:51.981Z)
Latitude
Longitude
160.39054°
Altitude
534.087 km
Speed
7.596 km/s
True Right ascension
07h 51m 04s
True Declination
0° 00' 00"
Sunlit
Object was in daylight at epoch
Visualization orbit readout
Latitude
Unknown
Longitude
Unknown
Altitude
Unknown
Speed
Unknown
Apparent Right ascension
Unknown
Apparent Declination
Unknown
Sunlit
N/A
Visualization observer readout
Local Sidereal Time
22:48:07
Azimuth
Unknown
Elevation
Unknown
Doppler factor
Unknown
Orbital elements
Apogee altitude
547.937 km
Perigee altitude
515.6 km
Semi-major axis
6,909.905 km
Eccentricity
0.00234
Inclination
58.4654°
RAAN
117.7687°
Arg. of periapsis
91.3426°
True anomaly
268.76312°
Mean anomaly
269.0312°
Eccentric anomaly
268.89716°
Mean motion
3.77864 °/min
Orbital period
95.27 mins
BSTAR
0.00061414
Loading maneuver chart data...
Computing Atmospheric mass density...
Loading historical data...
Loading historical data...
Loading historical data...
Loading historical data...
Loading historical data...
Loading historical data...
Loading historical data...
Other satellites on launch #54 in the year 1963 (1963-12-21 UTC)

Documentation

Showing up to 5 results
|